Time_in_sec,gx,gy,gz
1323445254.04850388,-0.00486699,-0.00008535,-0.99998815
1323445254.10063863,-0.00481748,-0.00013919,-0.99998839
1323445254.14847660,-0.00516364,0.00011728,-0.99998666
1323445254.18949723,-0.00498565,0.00024380,-0.99998754
1323445254.25362086,-0.00500309,0.00027022,-0.99998745
1323445254.30457401,-0.00508940,-0.00019575,-0.99998703
1323445254.35361362,-0.00530789,-0.00021386,-0.99998589
1323445254.40054178,-0.00532864,-0.00028860,-0.99998576
1323445254.45272756,-0.00523426,-0.00040327,-0.99998622
1323445254.50055242,-0.00522326,-0.00017958,-0.99998634
1323445254.55079246,-0.00575644,-0.00058117,-0.99998326
1323445254.60164094,-0.00564809,-0.00066549,-0.99998383
1323445254.64964151,-0.00568948,-0.00062988,-0.99998362
1323445254.70134950,-0.00565252,-0.00072559,-0.99998376
1323445254.75364637,-0.00553321,-0.00059422,-0.99998452
1323445254.80165124,-0.00575045,-0.00057149,-0.99998330
1323445254.85276151,-0.00565130,-0.00062306,-0.99998384
1323445254.90167904,-0.00570725,-0.00041573,-0.99998363
1323445254.95022440,-0.00574394,-0.00041204,-0.99998342
1323445255.00164986,-0.00592535,-0.00029339,-0.99998240
1323445255.04964113,-0.00627298,-0.00012067,-0.99998032
1323445255.09921217,-0.00638095,-0.00028741,-0.99997960
1323445255.15249777,-0.00641254,-0.00022524,-0.99997941
1323445255.19364834,-0.00657802,-0.00055087,-0.99997821
1323445255.25256562,-0.00660893,-0.00046610,-0.99997805
1323445255.30164003,-0.00757643,-0.00064819,-0.99997109
1323445255.35007358,-0.00760350,-0.00069661,-0.99997085
1323445255.40050244,-0.00758434,-0.00075038,-0.99997096
1323445255.44952798,-0.00753501,-0.00057508,-0.99997145
1323445255.50207901,-0.00741950,-0.00051835,-0.99997234
1323445255.54951501,-0.00769201,-0.00090730,-0.99997000
1323445255.60150838,-0.00776414,-0.00098765,-0.99996937
1323445255.64053464,-0.00762437,-0.00114595,-0.99997028
1323445255.69363928,-0.00780692,-0.00126212,-0.99996873
1323445255.74993157,-0.00799709,-0.00113768,-0.99996738
1323445255.80154657,-0.00847530,-0.00132733,-0.99996320
1323445255.85364962,-0.00853375,-0.00127612,-0.99996277
1323445255.90196633,-0.00861237,-0.00127155,-0.99996210
1323445255.94966292,-0.00871750,-0.00139811,-0.99996102
1323445256.00156260,-0.00865557,-0.00139357,-0.99996157
1323445256.05253887,-0.00884525,-0.00160398,-0.99995959
1323445256.10155392,-0.00886801,-0.00143497,-0.99995965
1323445256.15381336,-0.00878866,-0.00115303,-0.99996071
1323445256.19249201,-0.00866813,-0.00126055,-0.99996164
1323445256.25264096,-0.00863388,-0.00101038,-0.99996222
1323445256.29940963,-0.00778190,-0.00088456,-0.99996933
1323445256.35252833,-0.00760296,-0.00076863,-0.99997080
1323445256.40063238,-0.00753495,-0.00078934,-0.99997130
1323445256.44954300,-0.00761255,-0.00069840,-0.99997078
1323445256.50063467,-0.00772615,-0.00069235,-0.99996991
1323445256.54966950,-0.00772041,-0.00066338,-0.99996998
1323445256.60054493,-0.00771283,-0.00066023,-0.99997004
1323445256.64865947,-0.00758156,-0.00062413,-0.99997106
1323445256.68964815,-0.00741762,-0.00080606,-0.99997216
1323445256.74964356,-0.00765302,-0.00066672,-0.99997049
1323445256.80054235,-0.00744406,-0.00034076,-0.99997223
1323445256.85255408,-0.00732807,-0.00019018,-0.99997313
1323445256.90053868,-0.00739835,-0.00023444,-0.99997260
1323445256.94953823,-0.00751125,-0.00022935,-0.99997176
1323445257.00068927,-0.00741734,-0.00020801,-0.99997247
1323445257.05251980,-0.00722235,0.00029697,-0.99997387
1323445257.09950304,-0.00719375,0.00022417,-0.99997410
1323445257.14851665,-0.00693862,0.00030103,-0.99997588
1323445257.20060945,-0.00688413,0.00045996,-0.99997620
1323445257.24957013,-0.00703330,0.00046416,-0.99997516
1323445257.30067754,-0.00689714,0.00019457,-0.99997620
1323445257.35039091,-0.00685114,0.00023719,-0.99997650
1323445257.40048838,-0.00707326,0.00028284,-0.99997494
1323445257.44954491,-0.00723831,0.00025350,-0.99997377
1323445257.50157046,-0.00746072,0.00029342,-0.99997213
1323445257.55355358,-0.00701010,0.00010930,-0.99997542
1323445257.60156083,-0.00714489,0.00032421,-0.99997442
1323445257.65355897,-0.00721421,0.00020508,-0.99997396
1323445257.69264603,-0.00712416,0.00024161,-0.99997459
1323445257.75025511,-0.00699086,0.00016813,-0.99997555
1323445257.80052543,-0.00715399,-0.00045660,-0.99997431
1323445257.84965253,-0.00732477,-0.00039951,-0.99997309
1323445257.90233421,-0.00728419,-0.00050785,-0.99997334
1323445257.95025587,-0.00727355,-0.00025981,-0.99997351
1323445258.00139546,-0.00737981,-0.00010869,-0.99997276
1323445258.05252814,-0.00684592,0.00018473,-0.99997655
1323445258.10128975,-0.00691968,0.00046502,-0.99997595
1323445258.15252542,-0.00690108,0.00049023,-0.99997607
1323445258.19351482,-0.00658446,0.00060436,-0.99997814
1323445258.24965382,-0.00655804,0.00048211,-0.99997838
1323445258.30010223,-0.00544040,0.00046828,-0.99998509
1323445258.34964609,-0.00561210,0.00045906,-0.99998415
1323445258.40165234,-0.00557773,0.00064974,-0.99998423
1323445258.45252991,-0.00593810,0.00085040,-0.99998201
1323445258.50053096,-0.00589406,0.00074045,-0.99998236
1323445258.55248332,-0.00512048,0.00068950,-0.99998665
1323445258.60050893,-0.00500178,0.00064860,-0.99998728
1323445258.64910460,-0.00508095,0.00057924,-0.99998692
1323445258.69248700,-0.00504032,0.00043735,-0.99998720
1323445258.75262690,-0.00514394,0.00049440,-0.99998665
1323445258.80055737,-0.00488194,0.00061936,-0.99998789
1323445258.85251760,-0.00466573,0.00072211,-0.99998885
1323445258.90062547,-0.00461975,0.00078129,-0.99998902
1323445258.94953728,-0.00468926,0.00116439,-0.99998833
1323445259.00057292,-0.00473607,0.00120864,-0.99998805
1323445259.04955435,-0.00461439,0.00058964,-0.99998918
1323445259.10155702,-0.00455280,0.00061380,-0.99998945
1323445259.14965248,-0.00465351,0.00070369,-0.99998892
1323445259.19365907,-0.00475284,0.00057710,-0.99998854
1323445259.25253057,-0.00455891,0.00052795,-0.99998947
1323445259.30065536,-0.00406554,0.00045168,-0.99999163
1323445259.34970284,-0.00402093,0.00055368,-0.99999176
1323445259.40049028,-0.00392475,0.00049075,-0.99999218
1323445259.44952273,-0.00388834,0.00035093,-0.99999238
1323445259.50168753,-0.00388616,0.00034465,-0.99999239
1323445259.54953527,-0.00340432,0.00038124,-0.99999413
1323445259.60151911,-0.00328512,0.00024428,-0.99999457
1323445259.65254164,-0.00325256,0.00022399,-0.99999469
1323445259.68966317,-0.00326611,0.00035198,-0.99999460
1323445259.74955034,-0.00339778,0.00043633,-0.99999413
1323445259.80065060,-0.00347350,0.00011653,-0.99999396
1323445259.84963703,-0.00334160,0.00012642,-0.99999441
1323445259.89854360,-0.00370140,0.00016447,-0.99999314
1323445259.94955754,-0.00362345,-0.00003330,-0.99999343
1323445260.00239587,-0.00336056,-0.00005016,-0.99999435
1323445260.05657363,-0.00306081,-0.00008335,-0.99999531
1323445260.10065365,-0.00309925,-0.00017830,-0.99999518
1323445260.15249419,-0.00299415,-0.00032055,-0.99999547
1323445260.20051813,-0.00301700,-0.00036277,-0.99999538
1323445260.25256324,-0.00312476,-0.00018729,-0.99999510
1323445260.30452919,-0.00270957,-0.00066219,-0.99999611
1323445260.35355592,-0.00267161,-0.00055386,-0.99999628
1323445260.40054321,-0.00261117,-0.00020947,-0.99999657
1323445260.45250893,-0.00283425,-0.00034435,-0.99999592
1323445260.50154376,-0.00307634,-0.00056851,-0.99999511
1323445260.55040264,-0.00273037,-0.00098297,-0.99999579
1323445260.60051060,-0.00270222,-0.00108906,-0.99999576
1323445260.65248990,-0.00290135,-0.00119121,-0.99999508
1323445260.70230603,-0.00277861,-0.00093269,-0.99999570
1323445260.74950671,-0.00285882,-0.00087080,-0.99999553
1323445260.80088043,-0.00237796,-0.00089577,-0.99999677
1323445260.85251260,-0.00238188,-0.00090613,-0.99999675
1323445260.90063429,-0.00257849,-0.00106974,-0.99999610
1323445260.95025778,-0.00240949,-0.00110915,-0.99999648
1323445261.00171065,-0.00234324,-0.00085162,-0.99999689
1323445261.04964828,-0.00178990,-0.00147548,-0.99999731
1323445261.09959531,-0.00200385,-0.00152669,-0.99999683
1323445261.14965248,-0.00213154,-0.00130054,-0.99999688
1323445261.20165038,-0.00207394,-0.00118167,-0.99999715
1323445261.25276327,-0.00196460,-0.00127132,-0.99999726
1323445261.30164742,-0.00112462,-0.00146276,-0.99999830
1323445261.35013390,-0.00123543,-0.00143139,-0.99999821
1323445261.40202284,-0.00096415,-0.00116031,-0.99999886
1323445261.44952369,-0.00104515,-0.00127347,-0.99999864
1323445261.50201535,-0.00120901,-0.00139384,-0.99999830
1323445261.54966211,-0.00124382,-0.00179262,-0.99999762
1323445261.60163999,-0.00106524,-0.00198344,-0.99999747
1323445261.65352535,-0.00110556,-0.00206951,-0.99999725
1323445261.70064592,-0.00104844,-0.00209871,-0.99999725
1323445261.74999690,-0.00104330,-0.00195039,-0.99999755
1323445261.80051374,-0.00087324,-0.00202330,-0.99999757
1323445261.84954906,-0.00086388,-0.00206015,-0.99999750
1323445261.89897895,-0.00096293,-0.00213608,-0.99999725
1323445261.94964743,-0.00096729,-0.00208520,-0.99999736
1323445262.00063729,-0.00114630,-0.00196498,-0.99999741
1323445262.05253386,-0.00128397,-0.00216917,-0.99999682
1323445262.10063052,-0.00127163,-0.00220536,-0.99999676
1323445262.15250850,-0.00167765,-0.00219583,-0.99999618
1323445262.20153284,-0.00160234,-0.00223791,-0.99999621
1323445262.25367832,-0.00174675,-0.00208347,-0.99999630
1323445262.30174470,-0.00177687,-0.00238816,-0.99999557
1323445262.34970498,-0.00173124,-0.00221711,-0.99999604
1323445262.40167022,-0.00166827,-0.00239018,-0.99999575
1323445262.45253515,-0.00189183,-0.00244211,-0.99999523
1323445262.50052953,-0.00177691,-0.00229730,-0.99999578
1323445262.54970956,-0.00172622,-0.00257599,-0.99999519
1323445262.60154843,-0.00197438,-0.00244307,-0.99999507
1323445262.65364933,-0.00209949,-0.00245901,-0.99999477
1323445262.69858193,-0.00217758,-0.00229185,-0.99999500
1323445262.74964285,-0.00234179,-0.00243855,-0.99999428
1323445262.80054712,-0.00197841,-0.00318047,-0.99999299
1323445262.84860849,-0.00208289,-0.00335931,-0.99999219
1323445262.90164185,-0.00215939,-0.00342013,-0.99999182
1323445262.94855523,-0.00238769,-0.00326562,-0.99999182
1323445263.00163317,-0.00240139,-0.00340448,-0.99999132
1323445263.05250621,-0.00272650,-0.00331275,-0.99999080
1323445263.10047507,-0.00284101,-0.00325439,-0.99999067
1323445263.15258598,-0.00280690,-0.00312146,-0.99999119
1323445263.20156789,-0.00287881,-0.00305039,-0.99999120
1323445263.25252533,-0.00294313,-0.00329018,-0.99999026
1323445263.30154347,-0.00250810,-0.00353416,-0.99999061
1323445263.35043049,-0.00238245,-0.00366110,-0.99999046
1323445263.40050697,-0.00247893,-0.00365328,-0.99999025
1323445263.44965148,-0.00252902,-0.00341467,-0.99999097
1323445263.50175571,-0.00246511,-0.00328719,-0.99999156
1323445263.54965663,-0.00262709,-0.00363560,-0.99998994
1323445263.60061550,-0.00283722,-0.00359033,-0.99998953
1323445263.65250182,-0.00300752,-0.00347234,-0.99998945
1323445263.70165133,-0.00297538,-0.00333367,-0.99999002
1323445263.75029993,-0.00290734,-0.00349355,-0.99998967
1323445263.80050683,-0.00277558,-0.00329834,-0.99999071
1323445263.84965420,-0.00273005,-0.00347624,-0.99999023
1323445263.90512967,-0.00276787,-0.00357245,-0.99998979
1323445263.95261741,-0.00235178,-0.00347324,-0.99999120
1323445264.00154161,-0.00219275,-0.00358694,-0.99999116
1323445264.05015349,-0.00270309,-0.00345811,-0.99999037
1323445264.10164309,-0.00257170,-0.00325320,-0.99999140
1323445264.15261602,-0.00256936,-0.00323971,-0.99999145
1323445264.20048952,-0.00245554,-0.00326809,-0.99999164
1323445264.25252724,-0.00281069,-0.00334724,-0.99999045
1323445264.30161047,-0.00349674,-0.00326459,-0.99998856
1323445264.35358262,-0.00359302,-0.00307380,-0.99998882
1323445264.40053630,-0.00377550,-0.00307704,-0.99998814
1323445264.43947339,-0.00388457,-0.00325284,-0.99998716
1323445264.50055408,-0.00390794,-0.00343002,-0.99998648
1323445264.54997945,-0.00312083,-0.00407322,-0.99998683
1323445264.60114980,-0.00319912,-0.00403820,-0.99998673
1323445264.65366340,-0.00315793,-0.00422284,-0.99998610
1323445264.69901204,-0.00297341,-0.00425948,-0.99998651
1323445264.74965215,-0.00292236,-0.00404839,-0.99998754
1323445264.80055404,-0.00385044,-0.00346757,-0.99998657
1323445264.85250139,-0.00351968,-0.00338289,-0.99998808
1323445264.90159798,-0.00347274,-0.00346022,-0.99998798
1323445264.94988799,-0.00360810,-0.00350298,-0.99998736
1323445265.00152254,-0.00366176,-0.00338046,-0.99998758
1323445265.05363488,-0.00369173,-0.00235663,-0.99999041
1323445265.10195065,-0.00359043,-0.00224968,-0.99999102
1323445265.15251637,-0.00354965,-0.00217216,-0.99999134
1323445265.20054865,-0.00355728,-0.00209155,-0.99999149
1323445265.25375366,-0.00369143,-0.00212236,-0.99999093
1323445265.30171728,-0.00409701,-0.00189078,-0.99998982
1323445265.34977722,-0.00436201,-0.00182842,-0.99998881
1323445265.38975835,-0.00434049,-0.00193900,-0.99998870
1323445265.45260143,-0.00433617,-0.00163176,-0.99998927
1323445265.50169873,-0.00456038,-0.00155364,-0.99998839
1323445265.54958749,-0.00543262,-0.00255892,-0.99998197
1323445265.60051560,-0.00562027,-0.00267793,-0.99998062
1323445265.64916110,-0.00552434,-0.00269536,-0.99998111
1323445265.70053363,-0.00569916,-0.00275710,-0.99997996
1323445265.74958968,-0.00590325,-0.00280170,-0.99997865
1323445265.80153465,-0.00638046,-0.00329550,-0.99997421
1323445265.85250401,-0.00647156,-0.00327018,-0.99997371
1323445265.90055251,-0.00647563,-0.00303100,-0.99997444
1323445265.94949603,-0.00646333,-0.00314435,-0.99997417
1323445266.00150990,-0.00638551,-0.00335605,-0.99997398
1323445266.05248833,-0.00721892,-0.00336348,-0.99996829
1323445266.10150695,-0.00719294,-0.00331139,-0.99996865
1323445266.15248942,-0.00722602,-0.00332862,-0.99996835
1323445266.20064259,-0.00729001,-0.00323815,-0.99996818
1323445266.25354671,-0.00722004,-0.00319585,-0.99996883
1323445266.30176568,-0.00840420,-0.00240435,-0.99996179
1323445266.34954548,-0.00824744,-0.00237354,-0.99996317
1323445266.40164828,-0.00848173,-0.00220234,-0.99996160
1323445266.45251656,-0.00822912,-0.00241194,-0.99996323
1323445266.50166297,-0.00839885,-0.00241895,-0.99996180
1323445266.55033994,-0.00837970,-0.00245959,-0.99996186
1323445266.60053372,-0.00832882,-0.00258251,-0.99996198
1323445266.65262032,-0.00822772,-0.00253379,-0.99996294
1323445266.70240641,-0.00836407,-0.00253204,-0.99996181
1323445266.74964499,-0.00836837,-0.00248008,-0.99996191
1323445266.80165982,-0.00858028,-0.00191521,-0.99996135
1323445266.85255384,-0.00854643,-0.00184024,-0.99996179
1323445266.90062356,-0.00874856,-0.00161353,-0.99996043
1323445266.95019269,-0.00881851,-0.00173501,-0.99995961
1323445267.00154400,-0.00901770,-0.00172080,-0.99995786
1323445267.05365109,-0.01082363,-0.00183059,-0.99993975
1323445267.10220194,-0.01112115,-0.00159668,-0.99993688
1323445267.15252352,-0.01123785,-0.00167140,-0.99993546
1323445267.20165443,-0.01144576,-0.00169447,-0.99993306
1323445267.24942684,-0.01151159,-0.00182826,-0.99993207
1323445267.30165195,-0.01280964,-0.00319677,-0.99991284
1323445267.35004425,-0.01268121,-0.00327047,-0.99991424
1323445267.40166306,-0.01249009,-0.00327362,-0.99991664
1323445267.44953871,-0.01238317,-0.00326614,-0.99991799
1323445267.50212860,-0.01257118,-0.00290720,-0.99991675
1323445267.54963708,-0.01287682,-0.00447627,-0.99990707
1323445267.60063410,-0.01277166,-0.00448048,-0.99990840
1323445267.65252638,-0.01285488,-0.00444097,-0.99990751
1323445267.70057893,-0.01269193,-0.00440205,-0.99990976
1323445267.74994683,-0.01247332,-0.00455102,-0.99991185
1323445267.80158567,-0.01357427,-0.00464165,-0.99989709
1323445267.85324764,-0.01360978,-0.00463254,-0.99989665
1323445267.90033054,-0.01355547,-0.00455257,-0.99989776
1323445267.94963813,-0.01366602,-0.00493372,-0.99989444
1323445268.00173855,-0.01377206,-0.00469136,-0.99989416
1323445268.05256081,-0.01462465,-0.00487522,-0.99988117
1323445268.10053849,-0.01439326,-0.00493221,-0.99988425
1323445268.15247321,-0.01446609,-0.00472935,-0.99988418
1323445268.20165324,-0.01454530,-0.00484118,-0.99988249
1323445268.25263977,-0.01446164,-0.00497048,-0.99988307
1323445268.30180526,-0.01449727,-0.00495083,-0.99988265
1323445268.34968138,-0.01467300,-0.00504245,-0.99987963
1323445268.40163755,-0.01458753,-0.00524066,-0.99987986
1323445268.45347905,-0.01470900,-0.00519732,-0.99987831
1323445268.50160217,-0.01427962,-0.00498827,-0.99988560
1323445268.54962587,-0.01446389,-0.00511483,-0.99988231
1323445268.60059214,-0.01457304,-0.00495305,-0.99988154
1323445268.64872885,-0.01464716,-0.00495286,-0.99988046
1323445268.70459032,-0.01464688,-0.00495876,-0.99988043
1323445268.75255179,-0.01342564,-0.00491962,-0.99989777
1323445268.80164599,-0.01320933,-0.00490454,-0.99990072
1323445268.84050465,-0.01315609,-0.00488576,-0.99990152
1323445268.90065408,-0.01298848,-0.00494256,-0.99990343
1323445268.94949889,-0.01305947,-0.00466757,-0.99990383
1323445269.00053668,-0.01202131,-0.00468926,-0.99991675
1323445269.05306482,-0.01199269,-0.00495053,-0.99991583
1323445269.10153508,-0.01197703,-0.00502613,-0.99991564
1323445269.15348244,-0.01210459,-0.00523537,-0.99991303
1323445269.20151615,-0.01221176,-0.00519779,-0.99991192
1323445269.25278211,-0.01234518,-0.00569368,-0.99990758
1323445269.30167913,-0.01224163,-0.00564989,-0.99990911
1323445269.35035729,-0.01198314,-0.00562911,-0.99991235
1323445269.40163755,-0.01196451,-0.00567047,-0.99991234
1323445269.45365429,-0.01198148,-0.00551495,-0.99991301
1323445269.50237703,-0.01179521,-0.00559638,-0.99991477
1323445269.54965353,-0.01173560,-0.00572219,-0.99991476
1323445269.60164475,-0.01168236,-0.00575127,-0.99991522
1323445269.65248489,-0.01174522,-0.00596559,-0.99991323
1323445269.70164871,-0.01188785,-0.00599262,-0.99991138
1323445269.75021911,-0.01243154,-0.00639624,-0.99990227
1323445269.80050659,-0.01263481,-0.00644140,-0.99989943
1323445269.84965324,-0.01247277,-0.00641882,-0.99990161
1323445269.90223384,-0.01247801,-0.00644635,-0.99990137
1323445269.94995928,-0.01230988,-0.00621258,-0.99990493
1323445270.00063276,-0.01221650,-0.00589232,-0.99990801
1323445270.04302430,-0.01206859,-0.00596746,-0.99990937
1323445270.10163975,-0.01220580,-0.00604848,-0.99990721
1323445270.15008736,-0.01210732,-0.00599718,-0.99990872
1323445270.19254875,-0.01211774,-0.00590377,-0.99990915
1323445270.25365043,-0.01211535,-0.00589058,-0.99990926
1323445270.30452108,-0.01235623,-0.00548208,-0.99990863
1323445270.35353303,-0.01251982,-0.00526288,-0.99990777
1323445270.40165567,-0.01269551,-0.00515646,-0.99990611
1323445270.45404267,-0.01282557,-0.00498907,-0.99990530
1323445270.50164652,-0.01291351,-0.00470900,-0.99990553
1323445270.54994321,-0.01215024,-0.00469865,-0.99991514
1323445270.60153198,-0.01217174,-0.00475509,-0.99991462
1323445270.64959931,-0.01236295,-0.00469837,-0.99991254
1323445270.68990922,-0.01239202,-0.00437611,-0.99991364
1323445270.75354218,-0.01223619,-0.00442475,-0.99991535
1323445270.80051970,-0.01155166,-0.00390966,-0.99992563
1323445270.85248971,-0.01147110,-0.00401571,-0.99992614
1323445270.90050459,-0.01141832,-0.00391543,-0.99992714
1323445270.94977617,-0.01119588,-0.00390676,-0.99992969
1323445271.00156546,-0.01107749,-0.00409387,-0.99993026
1323445271.05355835,-0.00995668,-0.00324844,-0.99994515
1323445271.10179901,-0.01005397,-0.00312570,-0.99994457
1323445271.15379238,-0.00997930,-0.00321366,-0.99994504
1323445271.20154142,-0.00998277,-0.00333106,-0.99994462
1323445271.25251746,-0.00999319,-0.00351401,-0.99994389
1323445271.30064130,-0.00942348,-0.00292832,-0.99995131
1323445271.34967422,-0.00938456,-0.00281193,-0.99995201
1323445271.40173483,-0.00956112,-0.00283748,-0.99995027
1323445271.45262289,-0.00954505,-0.00276479,-0.99995062
1323445271.49870968,-0.00983207,-0.00261832,-0.99994824
1323445271.54912663,-0.00956156,-0.00320404,-0.99994915
1323445271.60168147,-0.00953319,-0.00330658,-0.99994909
1323445271.65368962,-0.00942465,-0.00322919,-0.99995037
1323445271.70168066,-0.00949958,-0.00307079,-0.99995016
1323445271.74965262,-0.00944096,-0.00304215,-0.99995081
1323445271.80052876,-0.00926498,-0.00308181,-0.99995233
1323445271.84853125,-0.00919782,-0.00296733,-0.99995330
1323445271.90445256,-0.00931369,-0.00300895,-0.99995210
